Time,TemperatureF,DewpointF,PressureIn,WindDirection,WindDirectionDegrees,WindSpeedMPH,WindSpeedGustMPH,Humidity,HourlyPrecipIn,Conditions,Clouds,dailyrainin,SoftwareType,DateUTC
2013-04-11 00:03:00,67.0,-99.9,29.80,North,-999,-999.0,-999.0,-999,-99.99,,,-99.99,,2013-04-11 04:03:00,
2013-04-11 00:13:00,67.0,-99.9,29.81,North,-999,-999.0,-999.0,-999,-99.99,,,-99.99,,2013-04-11 04:13:00,
2013-04-11 00:23:00,68.0,-99.9,29.81,North,-999,-999.0,-999.0,-999,-99.99,,,-99.99,,2013-04-11 04:23:00,
2013-04-11 00:33:00,67.0,-99.9,29.82,North,-999,-999.0,-999.0,-999,-99.99,,,-99.99,,2013-04-11 04:33:00,
2013-04-11 00:43:00,72.0,-99.9,29.83,North,-999,-999.0,-999.0,-999,-99.99,,,-99.99,,2013-04-11 04:43:00,
2013-04-11 00:53:00,71.0,-99.9,29.83,North,-999,-999.0,-999.0,-999,-99.99,,,-99.99,,2013-04-11 04:53:00,
2013-04-11 01:03:00,69.0,-99.9,29.83,North,-999,-999.0,-999.0,-999,-99.99,,,-99.99,,2013-04-11 05:03:00,
2013-04-11 01:13:00,68.0,-99.9,29.84,North,-999,-999.0,-999.0,-999,-99.99,,,-99.99,,2013-04-11 05:13:00,
2013-04-11 01:23:00,68.0,-99.9,29.85,North,-999,-999.0,-999.0,-999,-99.99,,,-99.99,,2013-04-11 05:23:00,
2013-04-11 01:32:00,68.0,-99.9,29.85,North,-999,-999.0,-999.0,-999,-99.99,,,-99.99,,2013-04-11 05:32:00,
2013-04-11 01:42:00,68.0,-99.9,29.87,North,-999,-999.0,-999.0,-999,-99.99,,,-99.99,,2013-04-11 05:42:00,
2013-04-11 01:52:00,67.0,-99.9,29.88,North,-999,-999.0,-999.0,-999,-99.99,,,-99.99,,2013-04-11 05:52:00,
2013-04-11 02:02:00,67.0,-99.9,29.87,North,-999,-999.0,-999.0,-999,-99.99,,,-99.99,,2013-04-11 06:02:00,
2013-04-11 02:12:00,67.0,-99.9,29.86,North,-999,-999.0,-999.0,-999,-99.99,,,-99.99,,2013-04-11 06:12:00,
2013-04-11 02:22:00,67.0,-99.9,29.86,North,-999,-999.0,-999.0,-999,-99.99,,,-99.99,,2013-04-11 06:22:00,
2013-04-11 02:32:00,66.0,-99.9,29.85,North,-999,-999.0,-999.0,-999,-99.99,,,-99.99,,2013-04-11 06:32:00,
2013-04-11 02:42:00,65.0,-99.9,29.85,North,-999,-999.0,-999.0,-999,-99.99,,,-99.99,,2013-04-11 06:42:00,
2013-04-11 02:53:00,65.0,-99.9,29.85,North,-999,-999.0,-999.0,-999,-99.99,,,-99.99,,2013-04-11 06:53:00,
2013-04-11 03:02:00,64.0,-99.9,29.83,North,-999,-999.0,-999.0,-999,-99.99,,,-99.99,,2013-04-11 07:02:00,
2013-04-11 03:12:00,65.0,-99.9,29.84,North,-999,-999.0,-999.0,-999,-99.99,,,-99.99,,2013-04-11 07:12:00,
2013-04-11 03:22:00,65.0,-99.9,29.84,North,-999,-999.0,-999.0,-999,-99.99,,,-99.99,,2013-04-11 07:22:00,
2013-04-11 03:32:00,64.0,-99.9,29.84,North,-999,-999.0,-999.0,-999,-99.99,,,-99.99,,2013-04-11 07:32:00,
2013-04-11 03:43:00,64.0,-99.9,29.85,North,-999,-999.0,-999.0,-999,-99.99,,,-99.99,,2013-04-11 07:43:00,
2013-04-11 03:52:00,64.0,-99.9,29.84,North,-999,-999.0,-999.0,-999,-99.99,,,-99.99,,2013-04-11 07:52:00,
2013-04-11 04:03:00,64.0,-99.9,29.84,North,-999,-999.0,-999.0,-999,-99.99,,,-99.99,,2013-04-11 08:03:00,
2013-04-11 04:12:00,62.0,-99.9,29.84,North,-999,-999.0,-999.0,-999,-99.99,,,-99.99,,2013-04-11 08:12:00,
2013-04-11 04:22:00,62.0,-99.9,29.84,North,-999,-999.0,-999.0,-999,-99.99,,,-99.99,,2013-04-11 08:22:00,
2013-04-11 04:33:00,62.0,-99.9,29.84,North,-999,-999.0,-999.0,-999,-99.99,,,-99.99,,2013-04-11 08:33:00,
2013-04-11 04:43:00,61.0,-99.9,29.84,North,-999,-999.0,-999.0,-999,-99.99,,,-99.99,,2013-04-11 08:43:00,
2013-04-11 04:52:00,61.0,-99.9,29.84,North,-999,-999.0,-999.0,-999,-99.99,,,-99.99,,2013-04-11 08:52:00,
2013-04-11 05:02:00,61.0,-99.9,29.83,North,-999,-999.0,-999.0,-999,-99.99,,,-99.99,,2013-04-11 09:02:00,
2013-04-11 05:12:00,61.0,-99.9,29.83,North,-999,-999.0,-999.0,-999,-99.99,,,-99.99,,2013-04-11 09:12:00,
2013-04-11 05:22:00,61.0,-99.9,29.83,North,-999,-999.0,-999.0,-999,-99.99,,,-99.99,,2013-04-11 09:22:00,
2013-04-11 05:33:00,61.0,-99.9,29.83,North,-999,-999.0,-999.0,-999,-99.99,,,-99.99,,2013-04-11 09:33:00,
2013-04-11 05:43:00,61.0,-99.9,29.83,North,-999,-999.0,-999.0,-999,-99.99,,,-99.99,,2013-04-11 09:43:00,
2013-04-11 05:53:00,60.0,-99.9,29.83,North,-999,-999.0,-999.0,-999,-99.99,,,-99.99,,2013-04-11 09:53:00,
2013-04-11 06:03:00,60.0,-99.9,29.83,North,-999,-999.0,-999.0,-999,-99.99,,,-99.99,,2013-04-11 10:03:00,
2013-04-11 06:13:00,60.0,-99.9,29.84,North,-999,-999.0,-999.0,-999,-99.99,,,-99.99,,2013-04-11 10:13:00,
2013-04-11 06:23:00,60.0,-99.9,29.84,North,-999,-999.0,-999.0,-999,-99.99,,,-99.99,,2013-04-11 10:23:00,
2013-04-11 06:32:00,60.0,-99.9,29.84,North,-999,-999.0,-999.0,-999,-99.99,,,-99.99,,2013-04-11 10:32:00,
2013-04-11 06:42:00,60.0,-99.9,29.84,North,-999,-999.0,-999.0,-999,-99.99,,,-99.99,,2013-04-11 10:42:00,
2013-04-11 06:53:00,60.0,-99.9,29.84,North,-999,-999.0,-999.0,-999,-99.99,,,-99.99,,2013-04-11 10:53:00,
2013-04-11 07:03:00,60.0,-99.9,29.84,North,-999,-999.0,-999.0,-999,-99.99,,,-99.99,,2013-04-11 11:03:00,
2013-04-11 07:13:00,59.0,-99.9,29.85,North,-999,-999.0,-999.0,-999,-99.99,,,-99.99,,2013-04-11 11:13:00,
2013-04-11 07:23:00,59.0,-99.9,29.87,North,-999,-999.0,-999.0,-999,-99.99,,,-99.99,,2013-04-11 11:23:00,
2013-04-11 07:32:00,60.0,-99.9,29.87,North,-999,-999.0,-999.0,-999,-99.99,,,-99.99,,2013-04-11 11:32:00,
2013-04-11 07:43:00,60.0,-99.9,29.87,North,-999,-999.0,-999.0,-999,-99.99,,,-99.99,,2013-04-11 11:43:00,
2013-04-11 07:53:00,64.0,-99.9,29.88,North,-999,-999.0,-999.0,-999,-99.99,,,-99.99,,2013-04-11 11:53:00,
2013-04-11 08:02:00,66.0,-99.9,29.88,North,-999,-999.0,-999.0,-999,-99.99,,,-99.99,,2013-04-11 12:02:00,
2013-04-11 08:13:00,67.0,-99.9,29.88,North,-999,-999.0,-999.0,-999,-99.99,,,-99.99,,2013-04-11 12:13:00,
2013-04-11 08:23:00,67.0,-99.9,29.88,North,-999,-999.0,-999.0,-999,-99.99,,,-99.99,,2013-04-11 12:23:00,
2013-04-11 08:32:00,68.0,-99.9,29.87,North,-999,-999.0,-999.0,-999,-99.99,,,-99.99,,2013-04-11 12:32:00,
2013-04-11 08:43:00,69.0,-99.9,29.87,North,-999,-999.0,-999.0,-999,-99.99,,,-99.99,,2013-04-11 12:43:00,
2013-04-11 08:53:00,69.0,-99.9,29.87,North,-999,-999.0,-999.0,-999,-99.99,,,-99.99,,2013-04-11 12:53:00,
2013-04-11 09:02:00,71.0,-99.9,29.86,North,-999,-999.0,-999.0,-999,-99.99,,,-99.99,,2013-04-11 13:02:00,
2013-04-11 09:13:00,71.0,-99.9,29.86,North,-999,-999.0,-999.0,-999,-99.99,,,-99.99,,2013-04-11 13:13:00,
2013-04-11 09:23:00,70.0,-99.9,29.86,North,-999,-999.0,-999.0,-999,-99.99,,,-99.99,,2013-04-11 13:23:00,
2013-04-11 09:33:00,69.0,-99.9,29.86,North,-999,-999.0,-999.0,-999,-99.99,,,-99.99,,2013-04-11 13:33:00,
2013-04-11 09:43:00,69.0,-99.9,29.86,North,-999,-999.0,-999.0,-999,-99.99,,,-99.99,,2013-04-11 13:43:00,
2013-04-11 09:54:00,70.0,-99.9,29.86,North,-999,-999.0,-999.0,-999,-99.99,,,-99.99,,2013-04-11 13:54:00,
2013-04-11 10:03:00,71.0,-99.9,29.86,North,-999,-999.0,-999.0,-999,-99.99,,,-99.99,,2013-04-11 14:03:00,
2013-04-11 10:13:00,71.0,-99.9,29.86,North,-999,-999.0,-999.0,-999,-99.99,,,-99.99,,2013-04-11 14:13:00,
2013-04-11 10:22:00,71.0,-99.9,29.86,North,-999,-999.0,-999.0,-999,-99.99,,,-99.99,,2013-04-11 14:22:00,
2013-04-11 10:33:00,70.0,-99.9,29.86,North,-999,-999.0,-999.0,-999,-99.99,,,-99.99,,2013-04-11 14:33:00,
2013-04-11 10:43:00,70.0,-99.9,29.86,North,-999,-999.0,-999.0,-999,-99.99,,,-99.99,,2013-04-11 14:43:00,
2013-04-11 10:53:00,70.0,-99.9,29.86,North,-999,-999.0,-999.0,-999,-99.99,,,-99.99,,2013-04-11 14:53:00,
2013-04-11 11:03:00,65.0,-99.9,29.87,North,-999,-999.0,-999.0,-999,-99.99,,,-99.99,,2013-04-11 15:03:00,
2013-04-11 11:12:00,65.0,-99.9,29.87,North,-999,-999.0,-999.0,-999,-99.99,,,-99.99,,2013-04-11 15:12:00,
2013-04-11 11:22:00,65.0,-99.9,29.87,North,-999,-999.0,-999.0,-999,-99.99,,,-99.99,,2013-04-11 15:22:00,
2013-04-11 11:32:00,65.0,-99.9,29.87,North,-999,-999.0,-999.0,-999,-99.99,,,-99.99,,2013-04-11 15:32:00,
2013-04-11 11:43:00,66.0,-99.9,29.87,North,-999,-999.0,-999.0,-999,-99.99,,,-99.99,,2013-04-11 15:43:00,
2013-04-11 11:53:00,66.0,-99.9,29.87,North,-999,-999.0,-999.0,-999,-99.99,,,-99.99,,2013-04-11 15:53:00,
2013-04-11 12:02:00,67.0,-99.9,29.87,North,-999,-999.0,-999.0,-999,-99.99,,,-99.99,,2013-04-11 16:02:00,
2013-04-11 12:13:00,68.0,-99.9,29.87,North,-999,-999.0,-999.0,-999,-99.99,,,-99.99,,2013-04-11 16:13:00,
2013-04-11 12:23:00,68.0,-99.9,29.86,North,-999,-999.0,-999.0,-999,-99.99,,,-99.99,,2013-04-11 16:23:00,
2013-04-11 12:33:00,68.0,-99.9,29.86,North,-999,-999.0,-999.0,-999,-99.99,,,-99.99,,2013-04-11 16:33:00,
2013-04-11 12:42:00,69.0,-99.9,29.85,North,-999,-999.0,-999.0,-999,-99.99,,,-99.99,,2013-04-11 16:42:00,
2013-04-11 12:53:00,70.0,-99.9,29.85,North,-999,-999.0,-999.0,-999,-99.99,,,-99.99,,2013-04-11 16:53:00,
2013-04-11 13:03:00,71.0,-99.9,29.85,North,-999,-999.0,-999.0,-999,-99.99,,,-99.99,,2013-04-11 17:03:00,
2013-04-11 13:13:00,69.0,-99.9,29.84,North,-999,-999.0,-999.0,-999,-99.99,,,-99.99,,2013-04-11 17:13:00,
2013-04-11 13:23:00,67.0,-99.9,29.84,North,-999,-999.0,-999.0,-999,-99.99,,,-99.99,,2013-04-11 17:23:00,
2013-04-11 13:33:00,66.0,-99.9,29.83,North,-999,-999.0,-999.0,-999,-99.99,,,-99.99,,2013-04-11 17:33:00,
2013-04-11 13:43:00,67.0,-99.9,29.83,North,-999,-999.0,-999.0,-999,-99.99,,,-99.99,,2013-04-11 17:43:00,
2013-04-11 13:53:00,68.0,-99.9,29.83,North,-999,-999.0,-999.0,-999,-99.99,,,-99.99,,2013-04-11 17:53:00,
2013-04-11 14:03:00,68.0,-99.9,29.83,North,-999,-999.0,-999.0,-999,-99.99,,,-99.99,,2013-04-11 18:03:00,
2013-04-11 14:13:00,68.0,-99.9,29.82,North,-999,-999.0,-999.0,-999,-99.99,,,-99.99,,2013-04-11 18:13:00,
2013-04-11 14:23:00,68.0,-99.9,29.82,North,-999,-999.0,-999.0,-999,-99.99,,,-99.99,,2013-04-11 18:23:00,
2013-04-11 14:33:00,68.0,-99.9,29.81,North,-999,-999.0,-999.0,-999,-99.99,,,-99.99,,2013-04-11 18:33:00,
2013-04-11 14:43:00,69.0,-99.9,29.81,North,-999,-999.0,-999.0,-999,-99.99,,,-99.99,,2013-04-11 18:43:00,
2013-04-11 14:53:00,72.0,-99.9,29.81,North,-999,-999.0,-999.0,-999,-99.99,,,-99.99,,2013-04-11 18:53:00,
2013-04-11 15:04:00,72.0,-99.9,29.80,North,-999,-999.0,-999.0,-999,-99.99,,,-99.99,,2013-04-11 19:04:00,
2013-04-11 15:14:00,71.0,-99.9,29.80,North,-999,-999.0,-999.0,-999,-99.99,,,-99.99,,2013-04-11 19:14:00,
2013-04-11 15:23:00,72.0,-99.9,29.80,North,-999,-999.0,-999.0,-999,-99.99,,,-99.99,,2013-04-11 19:23:00,
2013-04-11 15:33:00,74.0,-99.9,29.79,North,-999,-999.0,-999.0,-999,-99.99,,,-99.99,,2013-04-11 19:33:00,
2013-04-11 15:43:00,74.0,-99.9,29.79,North,-999,-999.0,-999.0,-999,-99.99,,,-99.99,,2013-04-11 19:43:00,
2013-04-11 15:53:00,74.0,-99.9,29.78,North,-999,-999.0,-999.0,-999,-99.99,,,-99.99,,2013-04-11 19:53:00,
2013-04-11 16:03:00,72.0,-99.9,29.78,North,-999,-999.0,-999.0,-999,-99.99,,,-99.99,,2013-04-11 20:03:00,
2013-04-11 16:13:00,72.0,-99.9,29.78,North,-999,-999.0,-999.0,-999,-99.99,,,-99.99,,2013-04-11 20:13:00,
2013-04-11 16:22:00,71.0,-99.9,29.77,North,-999,-999.0,-999.0,-999,-99.99,,,-99.99,,2013-04-11 20:22:00,
2013-04-11 16:34:00,74.0,-99.9,29.77,North,-999,-999.0,-999.0,-999,-99.99,,,-99.99,,2013-04-11 20:34:00,
2013-04-11 16:43:00,74.0,-99.9,29.76,North,-999,-999.0,-999.0,-999,-99.99,,,-99.99,,2013-04-11 20:43:00,
2013-04-11 16:53:00,74.0,-99.9,29.76,North,-999,-999.0,-999.0,-999,-99.99,,,-99.99,,2013-04-11 20:53:00,
2013-04-11 17:03:00,74.0,-99.9,29.76,North,-999,-999.0,-999.0,-999,-99.99,,,-99.99,,2013-04-11 21:03:00,
2013-04-11 17:13:00,74.0,-99.9,29.76,North,-999,-999.0,-999.0,-999,-99.99,,,-99.99,,2013-04-11 21:13:00,
2013-04-11 17:23:00,74.0,-99.9,29.76,North,-999,-999.0,-999.0,-999,-99.99,,,-99.99,,2013-04-11 21:23:00,
2013-04-11 17:33:00,69.0,-99.9,29.76,North,-999,-999.0,-999.0,-999,-99.99,,,-99.99,,2013-04-11 21:33:00,
2013-04-11 17:43:00,69.0,-99.9,29.77,North,-999,-999.0,-999.0,-999,-99.99,,,-99.99,,2013-04-11 21:43:00,
2013-04-11 17:54:00,68.0,-99.9,29.77,North,-999,-999.0,-999.0,-999,-99.99,,,-99.99,,2013-04-11 21:54:00,
2013-04-11 18:03:00,67.0,-99.9,29.77,North,-999,-999.0,-999.0,-999,-99.99,,,-99.99,,2013-04-11 22:03:00,
2013-04-11 18:13:00,65.0,-99.9,29.78,North,-999,-999.0,-999.0,-999,-99.99,,,-99.99,,2013-04-11 22:13:00,
2013-04-11 18:23:00,65.0,-99.9,29.78,North,-999,-999.0,-999.0,-999,-99.99,,,-99.99,,2013-04-11 22:23:00,
2013-04-11 18:33:00,64.0,-99.9,29.79,North,-999,-999.0,-999.0,-999,-99.99,,,-99.99,,2013-04-11 22:33:00,
2013-04-11 18:44:00,64.0,-99.9,29.79,North,-999,-999.0,-999.0,-999,-99.99,,,-99.99,,2013-04-11 22:44:00,
2013-04-11 18:53:00,62.0,-99.9,29.80,North,-999,-999.0,-999.0,-999,-99.99,,,-99.99,,2013-04-11 22:53:00,
2013-04-11 19:04:00,62.0,-99.9,29.80,North,-999,-999.0,-999.0,-999,-99.99,,,-99.99,,2013-04-11 23:04:00,
2013-04-11 19:13:00,60.0,-99.9,29.80,North,-999,-999.0,-999.0,-999,-99.99,,,-99.99,,2013-04-11 23:13:00,
2013-04-11 19:23:00,60.0,-99.9,29.81,North,-999,-999.0,-999.0,-999,-99.99,,,-99.99,,2013-04-11 23:23:00,
2013-04-11 19:33:00,59.0,-99.9,29.81,North,-999,-999.0,-999.0,-999,-99.99,,,-99.99,,2013-04-11 23:33:00,
2013-04-11 19:43:00,59.0,-99.9,29.81,North,-999,-999.0,-999.0,-999,-99.99,,,-99.99,,2013-04-11 23:43:00,
2013-04-11 19:54:00,58.0,-99.9,29.82,North,-999,-999.0,-999.0,-999,-99.99,,,-99.99,,2013-04-11 23:54:00,
2013-04-11 20:02:00,58.0,-99.9,29.82,North,-999,-999.0,-999.0,-999,-99.99,,,-99.99,,2013-04-12 00:02:00,
2013-04-11 20:12:00,57.0,-99.9,29.82,North,-999,-999.0,-999.0,-999,-99.99,,,-99.99,,2013-04-12 00:12:00,
2013-04-11 20:22:00,57.0,-99.9,29.82,North,-999,-999.0,-999.0,-999,-99.99,,,-99.99,,2013-04-12 00:22:00,
2013-04-11 20:33:00,57.0,-99.9,29.83,North,-999,-999.0,-999.0,-999,-99.99,,,-99.99,,2013-04-12 00:33:00,
2013-04-11 20:43:00,57.0,-99.9,29.82,North,-999,-999.0,-999.0,-999,-99.99,,,-99.99,,2013-04-12 00:43:00,
2013-04-11 20:53:00,57.0,-99.9,29.83,North,-999,-999.0,-999.0,-999,-99.99,,,-99.99,,2013-04-12 00:53:00,
2013-04-11 21:03:00,57.0,-99.9,29.83,North,-999,-999.0,-999.0,-999,-99.99,,,-99.99,,2013-04-12 01:03:00,
2013-04-11 21:12:00,57.0,-99.9,29.84,North,-999,-999.0,-999.0,-999,-99.99,,,-99.99,,2013-04-12 01:12:00,
2013-04-11 21:23:00,56.0,-99.9,29.84,North,-999,-999.0,-999.0,-999,-99.99,,,-99.99,,2013-04-12 01:23:00,
2013-04-11 21:33:00,56.0,-99.9,29.84,North,-999,-999.0,-999.0,-999,-99.99,,,-99.99,,2013-04-12 01:33:00,
2013-04-11 21:42:00,56.0,-99.9,29.85,North,-999,-999.0,-999.0,-999,-99.99,,,-99.99,,2013-04-12 01:42:00,
2013-04-11 21:53:00,56.0,-99.9,29.85,North,-999,-999.0,-999.0,-999,-99.99,,,-99.99,,2013-04-12 01:53:00,
2013-04-11 22:03:00,55.0,-99.9,29.85,North,-999,-999.0,-999.0,-999,-99.99,,,-99.99,,2013-04-12 02:03:00,
2013-04-11 22:13:00,55.0,-99.9,29.85,North,-999,-999.0,-999.0,-999,-99.99,,,-99.99,,2013-04-12 02:13:00,
2013-04-11 22:23:00,55.0,-99.9,29.85,North,-999,-999.0,-999.0,-999,-99.99,,,-99.99,,2013-04-12 02:23:00,
2013-04-11 22:33:00,55.0,-99.9,29.85,North,-999,-999.0,-999.0,-999,-99.99,,,-99.99,,2013-04-12 02:33:00,
2013-04-11 22:42:00,54.0,-99.9,29.85,North,-999,-999.0,-999.0,-999,-99.99,,,-99.99,,2013-04-12 02:42:00,
2013-04-11 22:53:00,54.0,-99.9,29.85,North,-999,-999.0,-999.0,-999,-99.99,,,-99.99,,2013-04-12 02:53:00,
2013-04-11 23:02:00,54.0,-99.9,29.85,North,-999,-999.0,-999.0,-999,-99.99,,,-99.99,,2013-04-12 03:02:00,
2013-04-11 23:12:00,54.0,-99.9,29.85,North,-999,-999.0,-999.0,-999,-99.99,,,-99.99,,2013-04-12 03:12:00,
2013-04-11 23:22:00,54.0,-99.9,29.84,North,-999,-999.0,-999.0,-999,-99.99,,,-99.99,,2013-04-12 03:22:00,
2013-04-11 23:33:00,54.0,-99.9,29.84,North,-999,-999.0,-999.0,-999,-99.99,,,-99.99,,2013-04-12 03:33:00,
2013-04-11 23:43:00,54.0,-99.9,29.83,North,-999,-999.0,-999.0,-999,-99.99,,,-99.99,,2013-04-12 03:43:00,
2013-04-11 23:53:00,54.0,-99.9,29.84,North,-999,-999.0,-999.0,-999,-99.99,,,-99.99,,2013-04-12 03:53:00,